Location: ????????
(55.5667°N, 37.5833°E)
Time: 01:01:53
(UTC+00:00)

SL-08 R/B - Pass Details

Date: 14 April 2026
Orbit: 950 x 1017 km, 82.9° (Epoch: 20 May)

Event Time Altitude Azimuth Distance (km) Brightness Sun altitude
Exits shadow 19:02:34 22° 176° (S) 1,944 5.6 -18.0°
Maximum altitude 19:06:38 72° 96° (E) 1,006 4.4 -18.3°
Drops below altitude 10° 19:12:44 10° 14° (NNE) 2,688 7.3 -18.8°
Sets 19:15:14 0° 13° (NNE) 3,638 8.1 -19.0°
